Regional Weather Roundup
Issued by NWS Upton, NY

Current Version | Previous Version | Text Only | Print | Product List | Glossary On
Versions: 1 2 3 4 5 6 7 8 9 10 11 12 13 14 15 16 17 18 19 20 21 22 23 24 25 26 27 28 29 30 31 32 33 34 35 36 37 38 39 40 41 42 43 44 45 46 47 48 49 50
000 ASUS41 KOKX 261208 RWROKX REGIONAL WEATHER ROUNDUP NATIONAL WEATHER SERVICE NEW YORK NY 800 AM EDT MON SEP 26 2016 NOTE: "FAIR" INDICATES FEW OR NO CLOUDS BELOW 12,000 FEET WITH NO SIGNIFICANT WEATHER AND/OR OBSTRUCTIONS TO VISIBILITY. NYZ071-072-176-178-NJZ106-104-261300- NEW YORK CITY METRO AREA CITY SKY/WX TMP DP RH WIND PRES REMARKS Central Park SUNNY 55 46 71 E3 30.23R LaGuardia APRT MOSUNNY 61 47 59 NE8 30.20R Kennedy INTL MOSUNNY 57 42 57 E9 30.20S Newark/Liberty MOSUNNY 55 45 68 N9 30.21R Bronx Bot Gard N/A 55 41 58 CALM 30.23R Wall St Helipt SUNNY 63 52 67 NE9 30.21R Teterboro SUNNY 53 44 71 N6 30.20R $$ NYZ177-179-078>081-261300- LONG ISLAND NEW YORK CITY SKY/WX TMP DP RH WIND PRES REMARKS Farmingdale SUNNY 56 43 61 E7 30.21R MacArthur/ISP MOSUNNY 56 44 64 E9 30.21R Shirley SUNNY 52 47 83 CALM 30.22R Riverhead NOT AVBL Westhampton SUNNY 54 43 66 E6 30.23R Southampton N/A 57 48 72 NE3 30.19R Bridgehampton N/A 50 46 87 CALM 30.07S East Hampton FAIR 46 43 90 CALM 30.22R Montauk N/A 57 46 66 NE3 30.23 $$ NYZ052-065-067-261300- HUDSON VALLEY CITY SKY/WX TMP DP RH WIND PRES REMARKS White Plains SUNNY 53 38 56 E6 30.20S Newburgh SUNNY 43 41 93 CALM 30.23R Montgomery SUNNY 41 39 93 CALM 30.22S Poughkeepsie SUNNY 39 36 89 CALM 30.23R Albany MOSUNNY 40 38 93 CALM 30.23S $$ NJZ001-105-106-008-010-013-015-019>022-104-261300- NEW JERSEY CITY SKY/WX TMP DP RH WIND PRES REMARKS Newark/Liberty MOSUNNY 55 45 68 N9 30.21R Teterboro SUNNY 53 44 71 N6 30.20R Caldwell SUNNY 50 44 80 N3 30.22R Morristown MOSUNNY 43 43 100 CALM 30.22R Somerville SUNNY 45 42 89 NW3 30.18S Linden NOT AVBL Sussex SUNNY 40 40 100 CALM 30.21S Abdover N/A 43 41 93 CALM 30.20S Trenton SUNNY 51 46 83 N3 30.18S Millville MOSUNNY 56 53 90 CALM 30.18S Atlantic City MOSUNNY 54 49 83 CALM 30.19R Wrightstown SUNNY 49 47 93 CALM 30.16S Toms River MOSUNNY 48 44 86 CALM 30.19S Belmar SUNNY 57 50 77 CALM 30.20R $$ PAZ047>061-062-071-261300- EASTERN PENNSYLVANIA CITY SKY/WX TMP DP RH WIND PRES REMARKS Philadelphia PTSUNNY 58 53 84 E6 30.18S Allentown SUNNY 47 43 86 CALM 30.19R Scranton MOSUNNY 51 39 63 E8 30.16R $$ CTZ002-004>006-009-010-012-RIZ004-006-007-MAZ004-011-015-261300- SOUTHERN NEW ENGLAND IN CT CITY SKY/WX TMP DP RH WIND PRES REMARKS Bradley INTL MOSUNNY 42 38 85 NW5 30.25R Hartford SUNNY 45 42 89 N3 30.25R Danbury SUNNY 41 39 93 CALM 30.24R Wtrbury/Oxford MOSUNNY 43 37 81 CALM 30.24R Bridgeport NOT AVBL Meriden SUNNY 46 40 79 CALM 30.24R New Haven MOSUNNY 48 43 82 N8 30.23R Chester FAIR 48 37 66 N5 30.23R Groton SUNNY 49 40 71 N7 30.22S Wilimantic PTSUNNY 39 38 96 CALM 30.25R IN RI CITY SKY/WX TMP DP RH WIND PRES REMARKS Providence MOSUNNY 49 40 71 CALM 30.23S Block Island SUNNY 57 46 66 NE5 30.22S Westerly SUNNY 46 39 76 N3 30.23R IN MA CITY SKY/WX TMP DP RH WIND PRES REMARKS Boston MOSUNNY 51 39 63 W7 30.23R Worcester SUNNY 48 37 65 N3 30.21F Westfield MOSUNNY 41 39 93 N3 30.24R Provincetown MOSUNNY 57 40 52 NW6 30.22R Nantucket SUNNY 57 43 59 N6 30.21R $$ ANZ330-335-338-340-345-350-353-355-261300- COASTAL MARINE OBSERVATIONS STATION/POSITION TIME SKY/WX TEMP WIND PRES VSBY WAVE AIR SEA DIR/SP/G HT/PER (UTC) (F) (DEG/KT/KT) (MB) (MI) (FT/S) NY HARB ENTRANCE 1150 66 71 160/ 6/ 8 1022.2 2/10 20S FIRE ISLAND 1150 65 69 140/ 6/ 8 1022.3 2/10 GREAT SOUTH BAY 1115 58 69 50/ 12/ 14 N/A 23 SSW MONTAUK P 1150 62 68 70/ 8/ 10 1023.4 2/10 15 E BARNEGAT LI 1130 70 N/A 2/10 HUDSON CANYON 1050 65 69 1022.0 2/ 9 KINGS POINT 1136 56 72 1022.5 EXECUTION ROCKS 1145 60 70/ 8/ 12 N/A CENTRAL LI SOUND NOT AVBL EASTERN LI SOUND NOT AVBL ROBBINS REEF 1142 60 70/ 6/ 7 1022.8 $$ >>>>>>>>>>>>>>>>>>>>>>>>>>>> KEY <<<<<<<<<<<<<<<<<<<<<<<<<<< > < > SKY/WX - Sky Condition/Present Weather < > TMP - Temperature in Fahrenheit < > DP - Dew Point in Fahrenheit < > RH - Relative Humidity in Percent < > WIND - Direction (from) and Speed in MPH < > PRES - Mean Sea Level Pressure (inches of Hg) < > WCI - Wind Chill Index < > VSB - VISIBILITY IN MILES < > HX - HEAT INDEX < > TC - TEMPERATURE IN CELSIUS < > VRB - VARIABLE WIND DIRECTION < > < >>>>>>>>>>>>>>>>>>>>>>>>>>>> KEY <<<<<<<<<<<<<<<<<<<<<<<<<<<

USA.gov is the U.S. government's official web portal to all federal, state and local government web resources and services.